{"data":{"norad_id":56388,"epoch":"2026-09-20T00:12:00.578592Z","epoch_age_seconds":154457,"freshness":"FRESH","line1":"1 56388U 23061Q   26263.00834003 -.00000507  00000+0 -89199-5 0  9993","line2":"2 56388  43.0013 180.8627 0000817 263.6092  96.4667 15.27579319186461","mean_motion":15.27579319,"eccentricity":8.17e-5,"inclination_deg":43.0013,"raan_deg":180.8627,"arg_perigee_deg":263.6092,"mean_anomaly_deg":96.4667,"bstar":-8.9199e-6,"rev_number":18646,"period_min":94.266790738085,"perigee_km":482.49057612875,"apogee_km":483.61169427004,"semimajor_km":6861.1881351994,"source":"CELESTRAK","updated_at":"2026-09-21T09:00:33.432812Z"}}